x

8413320 - Bar Harbor, Me (atgm1) Weather Station

3:54 - Fri 9th Dec 2016 All times are EST. -5 hours from GMT.

  • Wind
    13mph, 20mph gusts
  • Sea Temp 46°f
  • Aire Temp 32°f
  • Sea Pressure 1003.4mb
  • 8413320 - Bar Harbor, Me
  • 8413320 - Bar Harbor, Me

More Historic Weather Station data

Upgrade to MSW Pro to gain access to the past 30 days of data for over 8000 Wavebouys and Weather Stations around the globe.

Join Pro

Comparision Forecast

View Surf forecast
   
vie 12/09 3:54 13 20 mph 1003.4mb 46f 32f
3:48 11 20 mph 1003.4mb 46f 32f
3:42 11 17 mph 1003.4mb 46f 32f
3:36 14 18 mph 1003.4mb 46f 32f
3:30 10 16 mph 1003.3mb 46f 32f
3:24 11 18 mph 1003.4mb 46f 32f
3:18 13 20 mph 1003.4mb 46f 32f
3:12 10 17 mph 1003.4mb 46f 32f
3:06 11 17 mph 1003.4mb 46f 33f
3:00 10 16 mph 1003.4mb 46f 32f
2:54 11 18 mph 1003.4mb 46f 33f
2:48 9 20 mph 1003.4mb 46f 33f
2:42 10 17 mph 1003.4mb 46f 33f
2:36 14 20 mph 1003.3mb 46f 33f
2:30 13 16 mph 1003.3mb 46f 33f
2:24 14 22 mph 1003.3mb 46f 33f
2:18 14 18 mph 1003.3mb 46f 33f
2:12 13 16 mph 1003.3mb 46f 33f
2:06 13 20 mph 1003.2mb 46f 33f
2:00 13 22 mph 1003.3mb 46f 33f
1:54 15 20 mph 1003.3mb 46f 33f
1:48 13 23 mph 1003.3mb 46f 33f
1:42 15 22 mph 1003.2mb 46f 33f
1:36 14 20 mph 1003.2mb 46f 33f
1:30 13 18 mph 1003.2mb 46f 33f
1:18 13 18 mph 1003.1mb 46f 33f
1:12 9 17 mph 1003.1mb 46f 33f
1:06 11 15 mph 1003.1mb 46f 33f
1:00 11 20 mph 1003.1mb 46f 33f
12:54 11 18 mph 1003mb 46f 33f
12:48 11 16 mph 1003mb - -
12:42 10 16 mph 1003.1mb - -
12:36 10 14 mph 1003.1mb - -
12:24 9 13 mph 1003.1mb 46f 33f
12:18 8 13 mph 1003.1mb 46f 33f
12:12 10 14 mph 1003.2mb 46f 33f
12:06 8 14 mph 1003.2mb 46f 33f
12:00 9 14 mph 1003.2mb 46f 33f
jue 12/08 11:54 11 16 mph 1003.2mb 46f 34f
11:48 9 17 mph 1003.2mb 46f 34f
11:42 11 17 mph 1003.3mb 46f 34f
11:36 10 14 mph 1003.4mb 46f 33f
11:30 11 16 mph 1003.5mb 46f 33f
11:24 9 15 mph 1003.5mb 46f 34f
11:18 11 15 mph 1003.6mb 46f 34f
11:12 10 17 mph 1003.6mb 46f 34f
11:06 9 15 mph 1003.6mb 46f 34f
11:00 10 15 mph 1003.5mb 46f 34f
10:54 13 15 mph 1003.5mb 46f 34f
10:48 11 15 mph 1003.5mb 46f 34f
10:42 11 15 mph 1003.6mb 46f 34f
10:36 13 17 mph 1003.6mb 46f 34f
10:24 11 17 mph 1003.6mb 46f 34f
10:18 13 21 mph 1003.6mb 46f 34f
10:12 11 18 mph 1003.5mb 46f 34f
10:06 11 17 mph 1003.6mb 46f 34f
10:00 8 15 mph 1003.6mb 46f 34f
9:54 10 16 mph 1003.7mb 46f 34f
9:48 11 18 mph 1003.8mb 46f 34f
9:42 9 14 mph 1003.8mb 46f 34f
9:36 10 13 mph 1003.8mb 46f 34f
9:30 8 16 mph 1003.8mb 46f 34f
9:24 9 15 mph 1003.9mb 46f 34f
9:18 10 14 mph 1004mb 46f 35f
9:12 10 15 mph 1004.1mb 46f 35f
9:06 9 14 mph 1004mb 46f 35f
9:00 10 15 mph 1004.1mb 46f 35f
8:54 9 14 mph 1004mb 46f 35f
8:48 10 16 mph 1004mb 46f 35f
8:42 8 16 mph 1004mb 46f 35f
8:36 10 16 mph 1004mb 46f 35f
8:24 11 16 mph 1003.9mb 46f 35f
8:18 13 18 mph 1003.9mb 46f 36f
8:12 13 15 mph 1004mb 46f 36f
8:00 13 17 mph 1004mb 46f 36f
7:54 15 20 mph 1004mb 46f 36f
7:48 13 17 mph 1004.1mb 46f 36f
7:42 11 17 mph 1004mb 46f 37f
7:36 9 17 mph 1004mb 46f 37f
7:30 11 15 mph 1004mb 46f 37f
7:24 10 14 mph 1004mb 46f 37f
7:18 7 11 mph 1004mb 46f 37f
7:12 8 11 mph 1004.1mb 46f 37f
7:06 8 10 mph 1004.1mb 46f 37f
7:00 7 11 mph 1004.2mb 46f 37f
6:54 6 13 mph 1004.2mb 46f 37f
6:48 9 11 mph 1004.2mb 46f 37f
6:42 9 13 mph 1004.3mb 46f 37f
6:36 9 13 mph 1004.3mb 46f 37f
6:30 8 14 mph 1004.4mb 46f 37f
6:24 9 14 mph 1004.4mb 46f 37f
6:18 8 13 mph 1004.3mb 46f 37f
6:12 8 13 mph 1004.3mb 46f 37f
6:06 10 14 mph 1004.2mb 46f 37f
6:00 10 14 mph 1004.2mb 46f 37f
5:54 9 13 mph 1004.2mb 46f 37f
5:48 10 14 mph 1004.2mb 46f 37f
5:42 9 11 mph 1004.3mb 46f 37f
5:36 8 11 mph 1004.2mb 46f 37f
5:30 6 8 mph 1004.1mb 46f 36f
5:18 6 7 mph 1004.1mb 46f 36f
5:12 5 6 mph 1004.2mb 46f 36f
5:06 5 6 mph 1004.1mb 46f 37f
5:00 5 6 mph 1004.1mb 46f 37f
4:54 5 6 mph 1004.1mb 46f 37f
4:48 3 5 mph 1004.2mb 46f 37f
4:42 5 6 mph 1004.2mb 46f 37f
4:36 3 5 mph 1004.3mb 46f 37f
4:30 3 5 mph 1004.4mb 46f 37f
4:24 2 5 mph 1004.4mb 46f 38f
4:18  -  2 mph 1004.3mb 46f 38f
4:12 1 2 mph 1004.4mb 47f 38f
4:06 2 3 mph 1004.4mb 47f 38f
4:00 2 3 mph 1004.4mb 47f 38f
3:54 1 2 mph 1004.4mb 47f 39f
3:48 1 3 mph 1004.4mb 47f 39f
3:42 2 6 mph 1004.3mb 47f 39f
3:36 2 5 mph 1004.4mb 46f 39f
3:30 5 6 mph 1004.4mb 46f 39f
3:24 3 5 mph 1004.4mb 46f 39f
3:18 3 7 mph 1004.5mb 46f 39f
3:12 1 3 mph 1004.6mb 46f 40f
3:06 2 5 mph 1004.7mb 46f 40f
3:00 2 6 mph 1004.7mb 46f 40f
2:54 3 5 mph 1004.8mb 46f 40f
2:48 3 6 mph 1004.8mb 46f 40f
2:42 6 7 mph 1004.9mb 46f 40f
2:36 3 6 mph 1005.1mb 46f 41f
2:30  -  1 mph 1005.1mb 46f 41f
2:24  -  1 mph 1005.1mb 46f 41f
2:18 1 2 mph 1005mb 46f 41f
2:12 1 2 mph 1005.1mb 46f 41f
2:06 1 2 mph 1005.2mb 46f 41f
2:00  -  1 mph 1005.2mb 46f 41f
1:54  -  1 mph 1005.3mb 46f 41f
1:48  -  2 mph 1005.3mb 46f 40f
1:42 1 2 mph 1005.5mb 46f 40f
1:36 2 3 mph 1005.5mb 46f 40f
1:30 3
mph
1005.6mb 46f 40f
1:24 1 2 mph 1005.7mb 46f 40f
1:18 1 2 mph 1005.8mb 46f 39f
1:12 1 5 mph 1005.8mb 46f 40f
1:06 2 3 mph 1005.9mb 46f 39f
1:00 3
mph
1006.1mb 46f 39f
12:54 3
mph
1006.1mb 46f 39f
12:48 3 5 mph 1006.3mb 46f 39f
12:42 2 3 mph 1006.3mb 46f 39f
12:36 2 3 mph 1006.4mb 46f 39f
12:30 2 3 mph 1006.5mb 46f 39f
12:24 2
mph
1006.6mb 46f 39f
12:18 2 3 mph 1006.7mb 46f 39f
12:12 2 3 mph 1006.8mb 46f 39f
12:06 3 5 mph 1007mb 46f 39f
12:00  -  1 mph 1007.1mb 46f 40f
11:54  -  2 mph 1007.1mb 46f 40f
11:48 2 3 mph 1007.3mb 46f 39f
11:42 2 3 mph 1007.4mb 46f 39f
11:36 1 2 mph 1007.5mb 46f 40f
11:30  -  2 mph 1007.7mb 46f 40f
11:24  -  1 mph 1007.8mb 46f 40f
11:18 1 2 mph 1008mb 46f 40f
11:12 2 3 mph 1008.1mb 46f 39f
11:06 1 3 mph 1008.2mb 46f 39f
11:00 1 2 mph 1008.3mb 45f 39f
10:54 1 2 mph 1008.4mb 45f 39f
10:48 1
mph
1008.5mb 46f 39f
10:42  -  1 mph 1008.7mb 46f 39f
10:36  -  2 mph 1008.8mb 46f 40f
10:30  -  1 mph 1008.9mb 46f 39f
10:24  -  1 mph 1009.1mb 45f 39f
10:18  -  2 mph 1009.2mb 45f 38f
10:12  -  2 mph 1009.3mb 45f 38f
10:06 3 5 mph 1009.5mb 46f 38f
10:00 5 6 mph 1009.5mb 46f 38f
9:54 3 5 mph 1009.5mb 45f 38f
9:48 3
mph
1009.6mb 45f 38f
9:42 2 5 mph 1009.8mb 45f 38f
9:36 3 5 mph 1009.8mb 46f 38f
9:30 3 5 mph 1009.9mb 46f 38f
9:24 2
mph
1009.9mb 45f 38f
9:18 1 2 mph 1009.9mb 45f 38f
9:12  -  1 mph 1009.9mb 45f 38f
9:06  -  mph 1009.9mb 46f 38f
9:00  -  2 mph 1010.1mb 46f 38f
8:54 2
mph
1010.1mb 46f 38f
8:48  -  2 mph 1010.2mb 46f 39f
8:42 1 2 mph 1010.2mb 45f 38f
8:36  -  1 mph 1010.2mb 45f 38f
8:30 1 2 mph 1010.2mb 45f 37f
8:24 2 3 mph 1010.2mb 45f 36f
8:18  -  mph 1010.2mb 46f 36f
8:12  -  2 mph 1010.3mb 46f 35f
8:06 2 3 mph 1010.4mb 46f 35f
8:00 3 5 mph 1010.4mb 46f 35f
7:54 5 7 mph 1010.5mb 46f 34f
7:48 3 7 mph 1010.6mb 46f 34f
7:42 6 7 mph 1010.6mb 46f 35f
7:36 6 9 mph 1010.7mb 46f 34f
7:30 6 9 mph 1010.8mb 46f 35f
7:24 7 9 mph 1010.8mb 45f 34f
7:18 8 9 mph 1010.9mb 45f 34f
7:12 7 8 mph 1010.8mb 45f 34f
7:06 7 8 mph 1010.9mb 45f 35f
7:00 5 6 mph 1010.9mb 45f 34f
6:54 5 6 mph 1010.9mb 45f 34f
6:48 5 6 mph 1010.9mb 45f 35f
6:42 5 6 mph 1011mb 45f 34f
6:36 5 6 mph 1011mb 45f 34f
6:30 5 6 mph 1010.9mb 45f 34f
6:24 5 7 mph 1010.9mb 45f 34f
6:18 6
mph
1011mb 46f 34f
6:12 5 6 mph 1010.9mb 45f 34f
6:06 5 6 mph 1010.9mb 45f 34f
6:00 5 6 mph 1011.1mb 46f 34f
5:54 6 7 mph 1011mb 46f 34f
5:48 7 8 mph 1011mb 46f 34f
5:42 7 8 mph 1011.1mb 46f 34f
5:36 8 9 mph 1011.1mb 46f 34f
5:30 7 9 mph 1011.1mb 46f 34f
5:24 7 8 mph 1011.2mb 46f 34f
5:18 6 7 mph 1011.2mb 46f 34f
5:12 6 8 mph 1011.2mb 46f 34f
5:06 7 8 mph 1011.3mb 46f 34f
5:00 7 8 mph 1011.4mb 46f 34f
4:54 7 8 mph 1011.4mb 46f 34f
4:48 8 10 mph 1011.4mb 46f 34f
4:42 8 10 mph 1011.5mb 46f 34f
4:36 8 11 mph 1011.4mb 46f 34f
4:30 9 10 mph 1011.5mb 46f 34f
4:24 8 9 mph 1011.4mb 46f 34f
4:18 9 10 mph 1011.5mb 45f 34f
4:12 8 9 mph 1011.5mb 46f 35f
4:06 7 8 mph 1011.5mb 45f 35f
4:00 7 9 mph 1011.5mb 46f 35f
3:54 7
mph
1011.5mb 46f 35f
3:48 5 6 mph 1011.4mb 46f 35f
3:42 5 8 mph 1011.5mb 46f 35f
3:36 8
mph
1011.8mb 46f 35f
3:30 7 8 mph 1011.5mb 46f 35f
3:24 8 9 mph 1011.6mb 46f 35f
3:18 6 8 mph 1011.6mb 46f 35f
3:12 7 9 mph 1011.5mb 46f 35f
3:06 8 9 mph 1011.8mb 46f 35f
3:00 8 9 mph 1011.7mb 46f 35f
2:54 8 9 mph 1011.6mb 46f 35f
2:48 7 8 mph 1011.9mb 46f 35f
2:42 6 8 mph 1011.8mb 46f 35f
2:36 7 9 mph 1011.9mb 46f 35f
2:30 7 10 mph 1011.9mb 46f 35f
2:24 9 10 mph 1011.9mb 46f 35f
2:18 8 9 mph 1011.9mb 46f 35f
2:12 7 9 mph 1011.8mb 46f 35f
2:06 8 9 mph 1011.9mb 45f 35f
2:00 7 8 mph 1011.9mb 45f 35f
1:54 7
mph
1011.9mb 45f 35f
1:48 6
mph
1011.9mb 45f -
1:42 5 6 mph 1012mb 45f -
1:36 5 6 mph 1012mb 45f -
1:30 3 7 mph 1011.8mb 45f 35f
1:24 6 8 mph 1011.7mb 45f 35f
1:18 7 9 mph 1011.8mb 45f 35f
1:12 8 9 mph 1011.9mb 46f 35f
1:06 8 9 mph 1011.9mb 46f 36f
1:00 9
mph
1011.9mb 46f 36f
12:54 8
mph
1012mb 46f 36f
12:48 7 8 mph 1011.9mb 46f -
12:42 7 9 mph 1012.1mb 46f -
12:36 7 8 mph 1012.1mb 46f -
12:30 6 8 mph 1012.3mb 46f 37f
12:24 6 8 mph 1012.2mb 46f 37f
12:18 6 8 mph 1012.1mb 46f 37f
12:12 7 10 mph 1012.3mb 46f 37f
12:06 8 10 mph 1012.3mb 46f 37f
12:00 7 9 mph 1012.3mb 46f 37f
mié 12/07 11:54 6 7 mph 1012.3mb 46f 37f
11:48 6
mph
1012.4mb 46f 36f
11:42 5 7 mph 1012.5mb 46f 36f
11:36 2 5 mph 1012.6mb 46f 37f
11:30 3 6 mph 1012.6mb 46f 36f
11:24 5 6 mph 1012.8mb 45f 37f
11:18 5 7 mph 1012.8mb 45f 36f
11:12 5 6 mph 1012.9mb 45f 36f
11:06 2 3 mph 1012.8mb 45f 36f
11:00 1 2 mph 1012.9mb 45f 35f
10:54 1 2 mph 1013.1mb 45f 35f
10:48  -  2 mph 1013.1mb 45f 35f
10:42 1 2 mph 1013.2mb 45f 35f
10:36 1 2 mph 1013.2mb 45f 35f
10:30 1 3 mph 1013.1mb 45f 35f
10:24 2 5 mph 1013.1mb 45f 35f
10:18 3 6 mph 1013mb 45f 35f
10:12 5 6 mph 1013mb 45f 35f
10:06 5 6 mph 1013mb 45f 36f
10:00 3 5 mph 1013mb 45f 36f
9:54  -  2 mph 1013.1mb 45f 36f
9:48 2 3 mph 1013.2mb 45f 36f
9:42 2 3 mph 1013.2mb 45f 36f
9:36 1 3 mph 1013.2mb 45f 36f
9:30 2 3 mph 1013.3mb 45f 35f
9:24 2 3 mph 1013.4mb 45f 36f
9:18 3 6 mph 1013.4mb 46f 36f
9:12 5 7 mph 1013.4mb 46f 36f
9:06 3 5 mph 1013.4mb 45f 36f
9:00 5 6 mph 1013.4mb 45f 36f
8:54 5 6 mph 1013.4mb 45f 36f
8:48 6 7 mph 1013.5mb 45f 36f
8:42 3 6 mph 1013.5mb 45f 36f
8:36 5 6 mph 1013.7mb 45f 36f
8:30 5 6 mph 1013.6mb 45f 36f
8:24 3 5 mph 1013.6mb 45f 36f
8:18 1 3 mph 1013.5mb 45f 36f
8:12 3
mph
1013.6mb 45f 36f
8:06 2 3 mph 1013.6mb 45f 36f
8:00 1 2 mph 1013.7mb 45f 36f
7:54 1 2 mph 1013.8mb 45f 35f
7:48 2 3 mph 1013.9mb 45f 35f
7:42  -  3 mph 1013.8mb 45f 35f
7:36 1 3 mph 1013.8mb 45f 35f
7:30 2 3 mph 1013.8mb 45f 35f
7:24  -  2 mph 1013.7mb 45f 35f
7:18 2
mph
1013.7mb 45f 35f
7:12 2
mph
1013.8mb 45f 35f
7:06  -  1 mph 1013.7mb 45f 35f
7:00 2 3 mph 1013.7mb 45f 35f
6:54 1 2 mph 1013.7mb 45f 35f
6:48  -  2 mph 1013.8mb 45f 35f
6:42  -  1 mph 1013.8mb 45f 35f
6:36  -  2 mph 1013.8mb 45f 35f
6:30 1 2 mph 1013.9mb 45f 35f
6:24  -  2 mph 1013.9mb 45f 34f
6:18 1 2 mph 1014.1mb 45f 34f
6:12 1 2 mph 1014.1mb 45f 34f
6:06 2
mph
1014.2mb 45f 34f
6:00 1
mph
1014.3mb 45f 35f
5:54  -  mph 1014.2mb 45f 35f
5:48  -  1 mph 1014.2mb 45f 35f
5:42  -  1 mph 1014.2mb 45f 35f
5:36  -  mph 1014.1mb 45f 35f
5:30  -  2 mph 1014mb 45f 34f
5:24 1 2 mph 1014mb 45f 34f
5:18  -  1 mph 1014mb 45f 34f
5:12 1 2 mph 1014.1mb 45f 34f
5:06  -  1 mph 1014mb 45f 34f
5:00 2 3 mph 1014mb 45f 34f
4:54 2
mph
1014mb 45f 34f
4:48 2 3 mph 1013.9mb 45f 33f
4:42 2 3 mph 1013.8mb 46f 33f
4:36 2 3 mph 1013.8mb 46f 33f
4:30 3
mph
1013.6mb 46f 33f
4:24 3 5 mph 1013.7mb 46f 33f
4:18 3 5 mph 1013.6mb 46f 33f
4:12 2 6 mph 1013.6mb 46f 33f
4:06 3 6 mph 1013.6mb 46f 33f
4:00 5 7 mph 1013.5mb 46f 33f
3:54 3 5 mph 1013.4mb 46f 32f
3:48 3
mph
1013.5mb 46f 32f
3:42 3 5 mph 1013.6mb 46f 32f
3:36 2 5 mph 1013.7mb 46f 32f
3:30 3
mph
1013.5mb 46f 32f
3:24 2
mph
1013.4mb 46f 32f
3:18 2
mph
1013.4mb 46f 32f
3:12 1 2 mph 1013.4mb 46f 32f
3:06 1 2 mph 1013.4mb 46f 32f
3:00 1 2 mph 1013.4mb 46f 32f
2:54 1 2 mph 1013.6mb 47f 32f
2:48  -  2 mph 1013.5mb 46f 32f
2:42  -  3 mph 1013.5mb 46f 32f
2:36 2 3 mph 1013.7mb 46f 32f
2:30 3 5 mph 1013.6mb 46f 31f
2:24 5 6 mph 1013.6mb 46f 31f
2:18 5 6 mph 1013.9mb 46f 32f
2:12 5 6 mph 1013.9mb 46f 31f
2:06 5
mph
1013.8mb 46f 31f
2:00 5 6 mph 1013.7mb 46f 31f
1:54 5 6 mph 1013.6mb 46f 31f
1:48 2 5 mph 1013.7mb 46f 32f
1:42 2 3 mph 1013.6mb 46f 31f
1:36 2
mph
1013.6mb 46f 31f
1:30 2
mph
1013.7mb 46f 31f
1:24 2 3 mph 1013.7mb 46f 31f
1:18 1 3 mph 1013.8mb 46f 31f
1:12 1 3 mph 1013.9mb 45f 31f
1:06 2 3 mph 1013.9mb 46f 31f
1:00 3 5 mph 1013.8mb 46f 30f
12:54 3 5 mph 1013.9mb 46f 30f
12:48 3 5 mph 1014.2mb 46f 30f
12:42 1 5 mph 1014.2mb 46f 30f
12:36 3 7 mph 1014.3mb 46f 30f
12:30 6 7 mph 1014.4mb 46f 30f
12:24 6 7 mph 1014.4mb 46f 30f
12:18 6 8 mph 1014.4mb 46f 30f
12:12 6 8 mph 1014.5mb 45f 29f
12:06 3 6 mph 1014.4mb 45f 29f
12:00 3 5 mph 1014.4mb 45f 29f
11:54 2 5 mph 1014.5mb 45f 29f
11:48 5 6 mph 1014.5mb 45f 29f
11:42 3 6 mph 1014.6mb 45f 29f
11:36 5 6 mph 1014.6mb 46f 29f
11:30 5 6 mph 1014.6mb 46f 29f
11:24 5 7 mph 1014.8mb 46f 29f
11:18 3 5 mph 1014.7mb 46f 28f
11:12 3 5 mph 1014.8mb 45f 28f
11:06 3 5 mph 1014.9mb 45f 28f
11:00 2 3 mph 1015mb 45f 29f
10:54  -  1 mph 1015mb 45f 29f
10:48 1 2 mph 1015.1mb 45f 29f
10:42 1 2 mph 1015.2mb 45f 29f
10:36  -  2 mph 1015.3mb 45f 29f
10:30  -  1 mph 1015.3mb 45f 29f
10:24  -  1 mph 1015.4mb 45f 29f
10:18 1 3 mph 1015.5mb 45f 29f
10:12 1 2 mph 1015.5mb 45f 29f
10:06 1 3 mph 1015.6mb 45f 29f
10:00 2 5 mph 1015.6mb 44f 29f
9:54 3 7 mph 1015.7mb 44f 28f
9:48 2 3 mph 1015.8mb 44f 29f
9:42  -  3 mph 1015.9mb 44f 28f
9:36  -  3 mph 1015.9mb 45f 29f
9:30  -  3 mph 1016mb 45f 29f
9:24 1 3 mph 1016mb 45f 28f
9:18  -  2 mph 1016mb 45f 28f
9:12  -  5 mph 1016mb 45f 28f
9:06 2 3 mph 1016mb 45f 28f
9:00 1 6 mph 1015.8mb 45f 28f
8:54 5 6 mph 1015.7mb 45f 28f
8:48 6 7 mph 1015.5mb 45f 28f
8:42 6 9 mph 1015.4mb 45f 28f
8:36 7 9 mph 1015.2mb 45f 28f
8:30 6 8 mph 1015.3mb 45f 28f
8:24 6 7 mph 1015.2mb 45f 28f
8:18 6 7 mph 1015.3mb 45f 27f
8:12 6 9 mph 1015.3mb 45f 27f
8:06 6 9 mph 1015.2mb 45f 28f
8:00 7 8 mph 1015mb 45f 28f
7:54 6 10 mph 1015.1mb 45f 28f
7:48 6 9 mph 1015.1mb 45f 28f
7:42 8 10 mph 1015.1mb 45f 27f
7:36 7 10 mph 1015.1mb 45f 27f
7:30 8 10 mph 1015.2mb 45f 27f
7:24 8 10 mph 1015.2mb 45f 27f
7:18 6 8 mph 1015.2mb 45f 27f
7:12 8 9 mph 1015.2mb 45f 27f
7:06 6 8 mph 1015.3mb 45f 28f
7:00 5 7 mph 1015.2mb 45f 27f
6:54 3 8 mph 1015.3mb 45f 27f
6:48 6 8 mph 1015.2mb 45f 27f
6:42 7 11 mph 1015mb 45f 28f
6:36 9 11 mph 1014.9mb 45f 28f
6:30 8 10 mph 1014.9mb 45f 27f
6:24 7 10 mph 1014.9mb 45f 27f
6:18 7 10 mph 1014.8mb 45f 27f
6:12 8 10 mph 1014.8mb 45f 27f
6:06 7 10 mph 1014.8mb 45f 27f
6:00 8 9 mph 1014.9mb 45f 27f
5:54 6 10 mph 1015mb 45f 27f
5:48 7 10 mph 1015mb 45f 28f
5:42 9 11 mph 1015mb 45f 27f
5:36 9 10 mph 1015.1mb 45f 27f
5:30 8 10 mph 1015.3mb 45f 28f
5:24 7 8 mph 1015.3mb 45f 28f
5:18 8 9 mph 1015.3mb 45f 27f
5:12 6 8 mph 1015.4mb 44f 28f
5:06 6 8 mph 1015.6mb 45f 28f
5:00 6 8 mph 1015.7mb 45f 28f
4:54 6 7 mph 1015.7mb 44f 28f
4:48 5 8 mph 1015.6mb 45f 28f
4:42 6 8 mph 1015.6mb 44f 28f
4:36 6 9 mph 1015.5mb 44f 28f
4:30 6 8 mph 1015.5mb 44f 28f
4:24 7 9 mph 1015.5mb 44f 28f
4:18 7 8 mph 1015.6mb 44f 28f
4:12 7 10 mph 1015.7mb 44f 28f
4:06 8 9 mph 1015.7mb 45f 28f
4:00 7 10 mph 1015.8mb 45f 28f
3:54 7 8 mph 1016mb 46f 28f
3:48 6 8 mph 1016.2mb 46f 28f
3:42 5 8 mph 1016.2mb 46f 28f
3:36 7 8 mph 1016.1mb 46f 28f
3:30 6 8 mph 1016.1mb 46f 28f
3:24 7 9 mph 1016.1mb 46f 28f
3:18 7 9 mph 1016.1mb 46f 28f
3:12 6 9 mph 1016.1mb 46f 28f
3:06 7 9 mph 1016.1mb 46f 28f
3:00 7 9 mph 1016mb 46f 28f
2:54 8 9 mph 1015.9mb 46f 28f
2:48 6 8 mph 1016mb 46f 28f
2:42 3 7 mph 1016mb 46f 28f
2:36 3 7 mph 1016mb 46f 28f
2:30 6 8 mph 1016.1mb 47f 28f
2:24 5 6 mph 1016.1mb 47f 28f
2:18 3 8 mph 1016.2mb 47f 28f
2:12 6 8 mph 1016.1mb 47f 28f
2:06 5 7 mph 1016.2mb 47f 28f
2:00 6 8 mph 1016.2mb 47f 28f
1:54 3 5 mph 1016.2mb 47f 28f
1:48 3 6 mph 1016.2mb 47f 28f
1:42 3 6 mph 1016.2mb 47f 28f
1:36 2 7 mph 1016.3mb 47f 28f
1:30 5 8 mph 1016.2mb 47f 28f
1:24 6 8 mph 1016.1mb 46f 28f
1:18 7 9 mph 1016mb 46f 28f
1:12 7 9 mph 1015.9mb 46f 28f
1:06 6 8 mph 1015.9mb 46f 28f
1:00 7 10 mph 1015.9mb 46f 28f
12:54 6 9 mph 1015.9mb 46f 28f
12:48 7 9 mph 1015.8mb 46f 28f
12:42 8 9 mph 1015.8mb 46f 28f
12:36 8 10 mph 1015.9mb 46f 28f
12:30 8 10 mph 1015.9mb 46f 28f
12:18 7 9 mph 1016mb 46f 28f
12:12 6 9 mph 1016.1mb 46f 28f
12:06 6 8 mph 1016.2mb 46f 28f
12:00 6 9 mph 1016.3mb 46f 28f
mar 12/06 11:54 6 8 mph 1016.3mb 46f 28f
11:48 6 8 mph 1016.3mb 46f 28f
11:42 6 8 mph 1016.4mb 46f 28f
11:36 8 9 mph 1016.5mb 46f 28f
11:30 8 9 mph 1016.6mb 46f 28f
11:24 7 9 mph 1016.6mb 46f 28f
11:18 6 9 mph 1016.8mb 46f 28f
11:12 7 9 mph 1016.8mb 46f 28f
11:06 8 13 mph 1016.9mb 46f 28f
11:00 9 13 mph 1016.9mb 46f 28f
10:54 10 11 mph 1016.8mb 46f 28f
10:48 9 11 mph 1016.8mb 46f 29f
10:42 9 11 mph 1016.9mb 46f 28f
10:36 7 10 mph 1017mb 46f 29f
10:30 8 10 mph 1017mb 46f 29f
10:24 7 9 mph 1017mb 46f 29f
10:18 8 10 mph 1017mb 46f 29f
10:12 7 9 mph 1017mb 46f 29f
10:06 6 8 mph 1017.2mb 45f 29f
10:00 5 8 mph 1017.2mb 45f 28f
9:54 5 6 mph 1017mb 44f 28f
9:48 3 5 mph 1016.9mb 44f 28f
9:18 3 6 mph 1016.9mb 45f 28f
9:12 3 5 mph 1016.7mb 45f 29f
9:06 2 6 mph 1017mb 45f 29f
9:00 3 6 mph 1016.9mb 44f 29f
8:54 3 5 mph 1017mb 44f 28f
8:48 2 5 mph 1017mb 44f 29f
7:54 6 11 mph 1016.9mb 45f 30f
7:48 6 11 mph 1016.8mb 45f 30f
7:30 5 7 mph 1016.9mb 45f 30f
7:24 6 8 mph 1016.9mb 45f 30f
7:18 6 8 mph 1016.8mb 45f 30f
7:12 6 9 mph 1016.9mb 45f 30f
7:06 6 8 mph 1017mb 46f 30f
7:00 3 7 mph 1017.1mb 46f 30f
6:54 1 6 mph 1017mb 46f 29f
6:48 2 5 mph 1017mb 46f 29f
6:42 3 7 mph 1017mb 46f 29f
6:36 5 8 mph 1017.1mb 46f 29f
6:30 6 8 mph 1017.2mb 46f 29f
6:24 6 7 mph 1017.2mb 45f 29f
6:18 5 7 mph 1017.3mb 45f 29f
6:12 6 8 mph 1017.3mb 45f 29f
6:06 6 8 mph 1017.3mb 45f 29f
6:00 7 9 mph 1017.3mb 45f 28f
5:54 5 7 mph 1017.2mb 44f 29f
5:48 6 7 mph 1017.2mb 44f 29f
5:42 6 8 mph 1017.3mb 44f 29f
5:36 7 9 mph 1017.1mb 44f 30f
5:30 8 10 mph 1017.2mb 44f 30f
5:24 9 13 mph 1017.2mb 44f 30f
5:18 9 14 mph 1017.3mb 44f 30f
5:12 9 11 mph 1017.3mb 44f 30f
5:06 9 14 mph 1017.5mb 44f 30f
5:00 11 15 mph 1017.5mb 44f 30f
4:54 11 15 mph 1017.6mb 44f 30f
4:48 11 14 mph 1017.6mb 44f 29f
4:42 8 11 mph 1017.8mb 44f 30f
4:36 8 13 mph 1017.6mb 44f 30f
4:30 9 14 mph 1017.5mb 44f 30f
4:24 7 15 mph 1017.5mb 44f 30f
4:18 9 14 mph 1017.4mb 44f 30f
4:12 10 16 mph 1017.4mb 44f 30f
4:06 10 14 mph 1017.4mb 44f 30f
4:00 9 14 mph 1017.5mb 44f 31f
3:54 10 14 mph 1017.5mb 44f 30f
3:48 13 17 mph 1017.4mb 44f 30f
3:42 14 17 mph 1017.4mb 44f 30f
3:36 13 15 mph 1017.3mb 44f 30f
3:30 9 15 mph 1017.3mb 45f 30f
3:24 9 13 mph 1017.3mb 46f 30f
3:18 8 14 mph 1017.2mb 46f 30f
3:12 10 14 mph 1017.2mb 46f 30f
3:06 11 15 mph 1017.1mb 45f 30f
3:00 11 14 mph 1017mb 45f 30f
2:54 10 15 mph 1017mb 45f 30f
2:48 13 16 mph 1017.1mb 45f 30f
2:42 11 17 mph 1017.2mb 46f 30f
2:36 10 15 mph 1017.2mb 46f 30f
2:30 11 17 mph 1017.1mb 45f 30f
2:24 10 17 mph 1017.2mb 45f 31f
2:18 13 17 mph 1017.2mb 44f 30f
2:12 15 18 mph 1017.2mb 45f 30f
2:06 16 18 mph 1017.1mb 45f 31f
2:00 15 18 mph 1017.2mb 44f 31f
1:54 14 17 mph 1017.1mb 44f 30f
1:48 14 20 mph 1017.1mb 44f 30f
1:30 11 21 mph 1017.1mb 46f 30f
1:24 15 18 mph 1017mb 46f 31f
1:18 15 20 mph 1017.1mb 46f 30f
1:12 15 20 mph 1017.2mb 46f 30f
1:06 15 17 mph 1017.5mb 46f 30f
1:00 14 17 mph 1017.4mb 46f 31f
12:54 13 16 mph 1017.5mb 46f 30f
12:48 14 17 mph 1017.4mb 45f 30f
12:30 14 17 mph 1017.4mb 45f 30f
12:24 10 16 mph 1017.4mb 45f 30f
12:18 13 21 mph 1017.4mb 45f 30f
12:12 10 16 mph 1017.4mb 45f 30f
12:06 10 14 mph 1017.3mb 45f 30f
12:00 10 16 mph 1017.4mb 45f 30f
11:54 14 18 mph 1017.3mb 45f 30f
11:48 13 20 mph 1017.4mb 45f 30f
11:42 11 16 mph 1017.4mb 44f 30f
11:36 11 20 mph 1017.5mb 45f 30f
11:30 14 22 mph 1017.3mb 44f 30f
11:24 14 17 mph 1017.4mb 44f 29f
11:18 16 21 mph 1017.5mb 45f 29f
11:12 15 21 mph 1017.2mb 44f 30f
11:06 15 20 mph 1017.3mb 44f 29f
11:00 14 17 mph 1017.5mb 44f 29f
10:54 15 18 mph 1017.5mb 44f 29f
10:48 17 22 mph 1017.6mb 44f 29f
10:42 16 20 mph 1017.8mb 44f 29f
10:36 14 20 mph 1017.9mb 44f 30f
10:30 16 20 mph 1017.9mb 45f 29f
10:24 13 17 mph 1018.1mb 44f 29f
10:18 13 18 mph 1018.1mb 44f 29f
10:12 13 17 mph 1018mb 44f 29f
10:06 13 17 mph 1018.2mb 44f 29f
10:00 14 20 mph 1018.2mb 44f 29f
9:54 16 18 mph 1018.1mb 44f 28f
9:48 16 21 mph 1018.2mb 44f 28f
9:42 16 21 mph 1018.2mb 44f 28f
9:36 17 24 mph 1018.1mb 43f 28f
9:30 15 20 mph 1018mb 43f 28f
9:24 15 20 mph 1017.8mb 44f 28f
9:18 15 20 mph 1017.8mb 44f 28f
9:12 14 18 mph 1017.8mb 44f 28f
9:06 16 18 mph 1017.8mb 43f 28f
9:00 11 14 mph 1018mb 43f 28f
8:54 13 15 mph 1018mb 43f 27f
8:48 13 15 mph 1018.1mb 43f 27f
8:42 13 16 mph 1018.1mb 43f 27f
8:36 13 16 mph 1018.2mb 43f 28f
8:30 11 17 mph 1018mb 43f 28f
8:24 13 18 mph 1017.8mb 43f 27f
8:18 14 18 mph 1017.7mb 44f 27f
8:12 13 17 mph 1017.9mb 44f 27f
8:06 13 17 mph 1017.9mb 43f 27f
8:00 14 17 mph 1017.7mb 44f 27f
7:54 14 20 mph 1017.7mb 45f 27f
7:48 13 20 mph 1017.6mb 45f 27f
7:42 14 15 mph 1017.6mb 44f 27f
7:36 11 16 mph 1017.6mb 44f 27f
7:30 10 14 mph 1017.5mb 44f 27f
7:24 10 14 mph 1017.4mb 44f 27f
7:18 10 14 mph 1017.2mb 45f 27f
7:12 10 13 mph 1017.1mb 45f 26f
7:06 9 13 mph 1017.1mb 44f 26f
7:00 10 13 mph 1017mb 45f 26f
6:54 8 10 mph 1017mb 45f 26f
6:48 10 13 mph 1016.9mb 45f 26f
6:42 10 14 mph 1016.9mb 45f 27f
6:36 9 13 mph 1016.8mb 45f 27f
6:30 9 11 mph 1016.7mb 45f 26f
6:24 10 14 mph 1016.6mb 45f 26f
6:18 9 14 mph 1016.4mb 45f 26f
6:12 8 11 mph 1016.4mb 45f 27f
6:06 9 11 mph 1016.2mb 45f 26f
6:00 9 14 mph 1016.1mb 45f 27f
5:54 9 15 mph 1016.1mb 45f 27f
5:48 10 16 mph 1016mb 45f 28f
5:42 13 15 mph 1016mb 45f 28f
5:36 11 15 mph 1015.9mb 45f 27f
5:30 13 15 mph 1015.8mb 45f 27f
5:24 11 15 mph 1015.6mb 45f 27f
5:18 11 15 mph 1015.6mb 45f 28f
5:12 10 14 mph 1015.4mb 44f 27f
5:06 10 13 mph 1015.3mb 44f 27f
5:00 9 14 mph 1015.4mb 44f 27f
4:54 10 13 mph 1015.4mb 44f 27f
4:48 11 15 mph 1015.4mb 44f 27f
4:42 10 14 mph 1015.3mb 44f 27f
4:36 11 15 mph 1015.2mb 44f 28f
4:30 11 16 mph 1015mb 45f 28f
4:24 13 15 mph 1014.9mb 45f 28f
4:18 14 16 mph 1015mb 45f 28f
4:12 13 15 mph 1014.9mb 45f 28f
4:06 13 14 mph 1014.9mb 44f 28f
4:00 13 14 mph 1014.8mb 45f 28f
3:54 11 15 mph 1014.7mb 44f 28f
3:48 11 16 mph 1014.7mb 44f 28f
3:42 14 16 mph 1014.6mb 44f 28f
3:36 14 16 mph 1014.4mb 44f 28f
3:30 13 14 mph 1014.4mb 44f 28f
3:24 11 15 mph 1014.4mb 44f 28f
3:18 11 15 mph 1014.3mb 44f 28f
3:12 13 14 mph 1014.3mb 44f 28f
3:06 10 14 mph 1014.3mb 44f 28f
3:00 11 14 mph 1014.3mb 44f 29f
2:54 10 14 mph 1014.3mb 44f 29f
2:48 10 16 mph 1014.2mb 44f 28f
2:42 10 15 mph 1014.3mb 44f 29f
2:36 13 16 mph 1014.1mb 43f 29f
2:30 13 16 mph 1014mb 43f 29f
2:24 11 16 mph 1013.9mb 43f 29f
2:18 14 17 mph 1013.7mb 44f 29f
2:12 13 17 mph 1013.6mb 44f 29f
2:06 13 16 mph 1013.6mb 44f 29f
2:00 10 16 mph 1013.5mb 44f 29f
1:54 13 16 mph 1013.4mb 44f 29f
1:48 11 16 mph 1013.3mb 44f 29f
1:42 13 17 mph 1013.2mb 44f 29f
1:36 11 16 mph 1013.1mb 45f 30f
1:30 10 15 mph 1013mb 44f 30f
1:24 13 17 mph 1012.9mb 43f 29f
1:18 13 17 mph 1012.8mb 43f 29f
1:12 10 15 mph 1012.8mb 43f 29f
1:06 14 18 mph 1012.8mb 45f 29f
1:00 13 16 mph 1012.7mb 45f 29f
12:54 11 16 mph 1012.7mb 45f 29f
12:48 13 17 mph 1012.6mb 45f 29f
12:42 13 17 mph 1012.5mb 45f 29f
12:36 14 18 mph 1012.3mb 45f 29f
12:30 14 17 mph 1012.2mb 45f 29f
12:24 11 17 mph 1012.2mb 45f 29f
12:18 13 18 mph 1012mb 45f 29f
12:12 10 15 mph 1011.8mb 45f 29f
12:06 11 14 mph 1011.7mb 45f 29f
12:00 10 14 mph 1011.6mb 45f 29f
lun 12/05 11:54 10 14 mph 1011.5mb 45f 29f
11:48 9 13 mph 1011.5mb 45f 30f
11:42 9 13 mph 1011.4mb 45f 30f
11:36 9 14 mph 1011.5mb 45f 29f
11:30 9 13 mph 1011.4mb 45f 29f
11:24 10 14 mph 1011.4mb 45f 30f
11:18 10 14 mph 1011.3mb 45f 30f
11:12 11 15 mph 1011.1mb 45f 30f
11:06 8 11 mph 1011.1mb 45f 31f
11:00 7 11 mph 1011.1mb 45f 31f
10:54 8 10 mph 1011.1mb 45f 31f
10:48 7 9 mph 1011.1mb 45f 31f
10:42 7 8 mph 1011mb 45f 31f
10:36 5 6 mph 1011mb 45f 31f
10:30 3 9 mph 1011mb 45f 31f
10:24 6 9 mph 1010.9mb 45f 31f
10:18 8 10 mph 1010.9mb 45f 31f
10:12 7 10 mph 1010.9mb 45f 31f
10:06 9 10 mph 1010.8mb 45f 31f
10:00 6 8 mph 1010.9mb 45f 30f
9:54 6 8 mph 1010.9mb 45f 30f
9:48 7 9 mph 1011mb 45f 30f
9:42 7 8 mph 1011mb 45f 30f
9:36 6 8 mph 1010.9mb 45f 30f
9:30 7 8 mph 1010.8mb 45f 30f
9:24 7 9 mph 1010.8mb 45f 30f
9:18 8 10 mph 1010.7mb 45f 30f
9:12 10 13 mph 1010.7mb 45f 30f
9:06 10 13 mph 1010.7mb 45f 30f
9:00 9 11 mph 1010.6mb 45f 30f
8:54 8 11 mph 1010.7mb 45f 30f
8:48 6 8 mph 1010.8mb 45f 30f
8:42 5 8 mph 1010.8mb 45f 30f
8:36 5 7 mph 1010.8mb 45f 30f
8:30 7 8 mph 1010.8mb 45f 31f
8:24 7 10 mph 1010.8mb 45f 31f
8:18 8 10 mph 1010.9mb 45f 31f
8:12 8 10 mph 1010.9mb 45f 31f
8:06 7 10 mph 1011mb 45f 31f
8:00 7 9 mph 1011.1mb 45f 31f
7:54 9 11 mph 1011.1mb 45f 30f
7:48 8 13 mph 1011.2mb 45f 30f
7:42 11 14 mph 1011.3mb 45f 30f
7:36 8 13 mph 1011.2mb 45f 31f
7:30 10 13 mph 1011.3mb 45f 30f
7:24 11 14 mph 1011.4mb 45f 30f
7:18 13 16 mph 1011.4mb 45f 31f
7:12 13 16 mph 1011.5mb 45f 31f
7:06 13 16 mph 1011.5mb 45f 31f
7:00 14 18 mph 1011.6mb 45f 31f
6:54 15 18 mph 1011.7mb 45f 31f
6:48 15 17 mph 1011.8mb 45f 31f
6:42 14 16 mph 1011.9mb 46f 31f
6:36 14 16 mph 1012mb 46f 31f
6:30 14 16 mph 1012.1mb 46f 31f
6:24 14 16 mph 1012.1mb 45f 30f
6:18 14 16 mph 1012.2mb 45f 31f
6:12 15 17 mph 1012.3mb 45f 30f
6:06 13 15 mph 1012.4mb 46f 31f
6:00 14 15 mph 1012.5mb 46f 31f
5:54 13 15 mph 1012.6mb 46f 31f
5:48 14 15 mph 1012.6mb 46f 31f
5:42 14 16 mph 1012.6mb 46f 31f
5:36 14 16 mph 1012.6mb 46f 31f
5:30 13 15 mph 1012.7mb 46f 31f
5:24 14 15 mph 1012.7mb 46f 31f
5:18 14 15 mph 1012.7mb 46f 31f
5:12 13 14 mph 1013mb 46f 31f
5:06 11 13 mph 1013.1mb 46f 31f
5:00 10 11 mph 1013.2mb 46f 31f
4:54 5 8 mph 1013.2mb 46f 31f
4:48 5 7 mph 1013.3mb 46f 30f
4:42 5 6 mph 1013.5mb 46f 30f
4:36 6 7 mph 1013.4mb 45f 30f
4:30 6 7 mph 1013.4mb 45f 29f
4:24 6 7 mph 1013.5mb 45f 29f
4:18 3 6 mph 1013.5mb 46f 30f
4:12 5 6 mph 1013.5mb 45f 30f
4:06 3 7 mph 1013.5mb 46f 30f
4:00 5 8 mph 1013.5mb 46f 30f
3:54 5 7 mph 1013.5mb 46f 30f
3:48 6 8 mph 1013.5mb 46f 30f
3:42 6 8 mph 1013.5mb 46f 30f
3:36 7 8 mph 1013.5mb 46f 31f
3:30 7 9 mph 1013.4mb 46f 31f
3:24 8 10 mph 1013.4mb 46f 31f
3:18 8 10 mph 1013.4mb 46f 31f
3:12 6 11 mph 1013.4mb 46f 31f
3:06 8 10 mph 1013.4mb 46f 31f
3:00 8 11 mph 1013.3mb 46f 32f
2:54 8 9 mph 1013.3mb 46f 31f
2:48 8 13 mph 1013.4mb 46f 31f
2:42 7 9 mph 1013.5mb 47f 31f
2:36 9 11 mph 1013.7mb 47f 31f
2:30 8 9 mph 1013.8mb 47f 31f
2:24 6 10 mph 1013.8mb 47f 31f
2:18 7 13 mph 1013.8mb 47f 31f
2:12 8 10 mph 1013.7mb 47f 31f
2:06 8 10 mph 1013.8mb 47f 30f
2:00 6 9 mph 1013.9mb 47f 30f
1:54 2 5 mph 1014mb 47f 30f
1:48 5 6 mph 1014.1mb 47f 30f
1:42 5 6 mph 1014.2mb 47f 29f
1:36 3 6 mph 1014.3mb 47f 29f
1:30 2 6 mph 1014.4mb 47f 29f
1:24 3 7 mph 1014.5mb 47f 29f
1:18 6 7 mph 1014.5mb 47f 29f
1:12 3 7 mph 1014.5mb 47f 29f
1:06 5 6 mph 1014.6mb 47f 29f
1:00 5 7 mph 1014.6mb 47f 29f
12:54 6 8 mph 1014.7mb 47f 29f
12:48 2 5 mph 1014.7mb 47f 29f
12:42 3 7 mph 1014.9mb 47f 28f
12:36 3 5 mph 1015.2mb 47f 28f
12:30 3 9 mph 1015.4mb 47f 28f
12:24 8 11 mph 1015.2mb 47f 28f
12:18 7 11 mph 1015.2mb 47f 28f
12:12 7 11 mph 1015.3mb 47f 28f
12:06 7 9 mph 1015.7mb 47f 28f
12:00 3 7 mph 1015.9mb 47f 28f
11:54 6 7 mph 1016mb 47f 28f
11:48 6 8 mph 1016.1mb 47f 28f
11:42 5
mph
1016.3mb 47f 28f
11:36 3 5 mph 1016.5mb 47f 28f
11:30 3 6 mph 1016.6mb 47f 28f
11:24 3 6 mph 1016.7mb 47f 28f
11:18 2 5 mph 1016.9mb 47f 28f
11:12 5 6 mph 1016.9mb 47f 28f
11:06 2 5 mph 1017.1mb 47f 28f
11:00 3 5 mph 1017.2mb 46f 28f
10:54 2 6 mph 1017.2mb 46f 28f
10:48 6
mph
1017.2mb 46f 27f
10:42 3 6 mph 1017.3mb 46f 28f
10:36 3 6 mph 1017.3mb 46f 27f
10:30 2 5 mph 1017.4mb 46f 27f
10:24 5 6 mph 1017.4mb 46f 27f
10:18 3 5 mph 1017.4mb 47f 27f
10:12 2 3 mph 1017.5mb 47f 27f
10:06 2 3 mph 1017.7mb 47f 27f
10:00 2 3 mph 1017.9mb 47f 27f
9:54 1 3 mph 1017.9mb 47f 27f
9:48 3 5 mph 1018mb 47f 27f